Change the Weather History Date:

Tuesday, March 4, 2014

  Actual Average Record
Temperature  
Mean Temperature 54 °F 46 °F  
Max Temperature 62 °F 55 °F 69 °F (1987)
Min Temperature 46 °F 38 °F 26 °F (1960)
Degree Days  
Heating Degree Days 11 19  
Month to date heating degree days 71 76  
Since 1 July heating degree days 3369 3134  
Cooling Degree Days 0 0  
Month to date cooling degree days 0 0  
Year to date cooling degree days 0 0  
Growing Degree Days 4 (Base 50)    
Moisture  
Dew Point 46 °F    
Average Humidity 77    
Maximum Humidity 93    
Minimum Humidity 60    
Precipitation  
Precipitation 0.11 in 0.13 in 0.76 in (1996)
Month to date precipitation 0.78 0.55  
Year to date precipitation 8.60 9.09  
Sea Level Pressure  
Sea Level Pressure 29.98 in    
Wind  
Wind Speed 8 mph (SE)    
Max Wind Speed 17 mph    
Max Gust Speed 21 mph    
Visibility 10 miles    
Events Rain    
T = Trace of Precipitation, MM = Missing Value Source: NWS Daily Summary

Daily Weather History Graph

Daily Weather History Graph

Search for Another Location

Airport or City:

Trip Planner

Search our weather history database for the weather conditions in past years. The results will help you decide how hot, cold, wet, or windy it might be!

Date:

Astronomy

Mar. 04, 2014 Rise Set
Actual Time 6:43 AM PST 6:01 PM PST
Civil Twilight 6:13 AM PST 6:31 PM PST
Nautical Twilight 5:39 AM PST 7:05 PM PST
Astronomical Twilight 5:04 AM PST 7:40 PM PST
Moon 8:20 AM PST (3/4) 10:29 PM PST (3/4)
Length of Visible Light 12h 17m
Length of Day
11h 18m
Waxing Crescent, 15% of the Moon is Illuminated
Mar 4
Waxing Crescent
Mar 8
First Quarter
Mar 16
Full
Mar 23
Last Quarter
Mar 30
New

Hourly Weather History & Observations

Time (PST) Temp. Dew Point Humidity Pressure Visibility Wind Dir Wind Speed Gust Speed Precip Events Conditions
12:47 AM 48.2 °F 44.6 °F 87% 30.00 in 10.0 mi ESE 4.6 mph - N/A   Mostly Cloudy
12:53 AM 50.0 °F 45.0 °F 83% 30.00 in 10.0 mi ESE 3.5 mph - N/A   Mostly Cloudy
1:53 AM 48.9 °F 46.0 °F 90% 29.99 in 10.0 mi Variable 5.8 mph - N/A   Mostly Cloudy
2:53 AM 50.0 °F 46.0 °F 86% 30.00 in 10.0 mi NE 4.6 mph - N/A   Mostly Cloudy
3:34 AM 48.9 °F 46.0 °F 90% 30.00 in 10.0 mi ESE 6.9 mph - N/A   Overcast
3:53 AM 48.9 °F 45.0 °F 86% 30.00 in 10.0 mi SE 5.8 mph - N/A   Overcast
4:33 AM 48.9 °F 45.0 °F 86% 30.01 in 10.0 mi ESE 5.8 mph - N/A   Overcast
4:53 AM 48.9 °F 46.0 °F 90% 30.01 in 10.0 mi SE 6.9 mph - N/A   Overcast
5:53 AM 48.9 °F 46.0 °F 90% 30.00 in 10.0 mi ESE 6.9 mph - N/A   Overcast
6:53 AM 48.9 °F 46.0 °F 90% 30.02 in 10.0 mi SSE 6.9 mph - N/A   Overcast
7:53 AM 50.0 °F 46.0 °F 86% 30.02 in 10.0 mi South 9.2 mph - N/A   Mostly Cloudy
8:53 AM 51.1 °F 46.9 °F 86% 30.04 in 10.0 mi South 8.1 mph - N/A   Mostly Cloudy
9:53 AM 53.1 °F 48.0 °F 83% 30.03 in 10.0 mi ESE 5.8 mph - N/A   Mostly Cloudy
10:53 AM 57.0 °F 46.9 °F 69% 30.03 in 10.0 mi South 10.4 mph - N/A   Mostly Cloudy
11:53 AM 57.9 °F 46.9 °F 67% 30.02 in 10.0 mi SSW 13.8 mph - N/A   Mostly Cloudy
12:53 PM 60.1 °F 46.9 °F 62% 30.00 in 10.0 mi SSW 11.5 mph - N/A   Mostly Cloudy
1:53 PM 61.0 °F 46.0 °F 58% 29.99 in 10.0 mi SSW 9.2 mph - N/A   Mostly Cloudy
2:53 PM 61.0 °F 46.9 °F 60% 29.97 in 10.0 mi SSW 8.1 mph - N/A   Overcast
3:53 PM 61.0 °F 46.9 °F 60% 29.97 in 10.0 mi SSW 9.2 mph - N/A   Overcast
4:53 PM 61.0 °F 46.9 °F 60% 29.95 in 10.0 mi South 4.6 mph - N/A   Overcast
5:53 PM 57.9 °F 48.0 °F 70% 29.95 in 10.0 mi SSW 5.8 mph - N/A   Overcast
6:53 PM 55.9 °F 46.9 °F 72% 29.94 in 10.0 mi ENE 6.9 mph - N/A   Overcast
7:53 PM 53.1 °F 46.9 °F 80% 29.93 in 10.0 mi ESE 6.9 mph - N/A   Overcast
8:53 PM 52.0 °F 46.9 °F 83% 29.92 in 10.0 mi ESE 9.2 mph - N/A   Overcast
9:53 PM 50.0 °F 46.0 °F 86% 29.91 in 10.0 mi ESE 8.1 mph - N/A   Overcast
10:53 PM 50.0 °F 46.9 °F 89% 29.88 in 10.0 mi East 8.1 mph - 0.00 in Rain Light Rain
11:53 PM 48.0 °F 46.9 °F 96% 29.85 in 10.0 mi ESE 11.5 mph - 0.11 in Rain Light Rain